Погода в Павелеце

Погода в Павелеце : погода сейчас, прогноз погоды и архив. Всё, что Вы хотите узнать о погоде в Павелеце!

Поиск расширенной информации на нашем сайте:

Другие новости

Новости СМИ2

Главная страница сайта

Новости сайта

03.07.2017

Напоминаем, что на нашем специализированном сайте Метеоцентр.Азия вы можете получить высокодетализированные автоматические прогнозы погоды по пунктам России, СНГ и мира в авиационном формате (включающие направление и скорость ветра, видимость, явления погоды, количество и форму облачности, нижнюю и верхнюю границу облачности).

Рекомендуем: DONIC level 800 Waldner готовая ракетка

Погода в Павелеце - сегодня

Время (UTC), дата Ветер
(°,м/с) 
Видим.   Явления Облачность Т
(°С)
Тd
(°С)
f(%) Тe
(°С)
Pmin
(гПа)
dP
(гПа)
Po
(мм)
O2
(г/м3)
Тmin Tmax R s Состояние
почвы
12 20.06.18 280 (З) 20000 м    4/0 верхняя 
[Ci fib]
+23.9 +4.1 28 +24  1010.2  0.1  740  273           
18 20.06.18 250 (З) 20000 м    3/0 верхняя 
[Ci fib]
+18.4 +6.6 46 +20  1011.2  0.7  740  278           
21 20.06.18 тихо ()   20000 м    ясно 
+12.6 +7.3 70 +13  1012.6  0.9  741  284           
00 21.06.18 тихо ()   20000 м    ясно 
+11.8 +7.5 75 +12  1013.2  0.6  741  285           
06 21.06.18 280 (З) 20000 м    ясно 
+21.4 +7.4 40 +21  1013.7  0.2  742  276           
09 21.06.18 260 (З) 20000 м    1/1 600 м 
[Cu hum]
+24.1 +5.8 31 +24  1012.7  -0.8  742  274           
12 21.06.18 240 (ЮЗ) 20000 м    ясно 
+26.4 +9.6 35 +27  1012.7  -0.9  741  271           
18 21.06.18 тихо ()   20000 м    ясно 
+18.3 +10.3 60 +20  1012.8  0.6  741  278           
21 21.06.18 тихо ()   20000 м    ясно 
+15.6 +9.5 67 +16  1013.5  0.5  742  281           
00 22.06.18 тихо ()   20000 м    ясно 
+12.1 +9.2 82 +12  1013.9  0.1  742  285           
06 22.06.18 180 (Ю) 20000 м    4/0 верхняя 
[Ci fib]
+24.3 +10 40 +26  1012.8  -0.3  742  273           
09 22.06.18 180 (Ю) 20000 м    8/5 600 м верхняя 
[Cu med, cong|Ci fib]
+27.4 +9.3 32 +28  1011.7  -0.8  741  270           
12 22.06.18 180 (Ю) 20000 м    8/5 600 м верхняя 
[Cu med, cong|Ci fib]
+29.6 +10.4 30 +32  1010  -1.5  740  267           
18 22.06.18 170 (Ю) 20000 м    4/0 верхняя 
[Ci fib]
+23.2 +13.5 54 +30  1009.6  -0.3  739  272           
21 22.06.18 150 (ЮВ) 20000 м    4/0 верхняя 
[Ci fib]
+19.4 +12.3 63 +25  1010.4  0.4  740  276           
00 23.06.18 150 (ЮВ) 20000 м    3/0 верхняя 
[Ci fib]
+17.1 +12.2 73 +23  1011.1  0.5  740  278           
06 23.06.18 180 (Ю) 20000 м    3/0 верхняя 
[Ci fib]
+27.6 +12 38 +32  1010.4  0.1  740  269           
09 23.06.18 180 (Ю) 20000 м    ясно 
+31.2 +9.1 25 +31  1009.8  -0.3  740  266           
18 23.06.18 110 (В) 20000 м    4/0 верхняя 
[Ci fib]
+26 +11.4 40 +29  1008.6  739  270           
21 23.06.18 110 (В) 20000 м    4/0 верхняя 
[Ci fib]
+23.5 +11.2 46 +27  1008.4  -0.4  738  272           
00 24.06.18 110 (В) 20000 м    4/0 верхняя 
[Ci fib]
+21.7 +10.8 50 +24  1007.7  -0.8  738  273           
06 24.06.18 140 (ЮВ) 20000 м    8/0 верхняя 
[Ci fib]
+26.8 +8.4 31 +27  1007.3  0.1  738  269           
09 24.06.18 130 (ЮВ) 5{10}  20000 м    9/0 верхняя 
[Ci fib]
+29.5 +6 23 +30  1007.4  0.3  738  267           
18 24.06.18 290 (З) 20000 м  слаб. ливневой дождь, в посл. час гроза  10/8 600 м кучево-дожд., верхняя 
[Cb calv|Ci fib]
+16.6 +15.5 93 +27  1011.5  2.8  740  278           
21 24.06.18 060 (СВ) 20000 м  {гроза, ливн. осадки}  10/3 600 м кучево-дожд., верхняя 
[Cb calv|Ci fib]
+14.5 +13.5 94 +22  1012.8  1.2  741  281           
Время (UTC), дата Ветер
(°,м/с) 
Видим.   Явления Облачность Т
(°С)
Тd
(°С)
f(%) Тe
(°С)
Pmin
(гПа)
dP
(гПа)
Po
(мм)
O2
(г/м3)
Тmin Tmax R s Состояние
почвы

Для получения пояснительной информации подведите курсор к названию столбца.

ПОГОДА в Павелеце - архив

Всё, что Вы хотите узнать о погоде в Павелеце - удобно и подробно!

Выберите нужную дату (начиная с 1 января 2015* года) и нажмите кнопку "Найти".
Будут отображены архивные сводки погоды по пункту Павелец, начиная с указанной даты.


Отображать данные в формате CSV (для использования в таблицах Excel)


Внимание! Наш архив погоды предназначен исключительно для личного некоммерческого использования в познавательных целях. Если Вам необходимы официальные справки о состоянии погоды (для производственных, юридических, коммерческих и т.п. целей), обращайтесь в органы Росгидромета.

*Примечание: данная дата относится к архиву по метеостанциям СССР (Россия, СНГ, Балтия).
Архив по метеостанциям Зарубежной Европы и Азии (кроме Китая) хранится 10 дней, по другим регионам земного шара (Китай, Африка, Америка, Австралия, Океания) - 1 день.

Павелец - район местоположения метеостанции


Название, широта, долгота, высота метеостанции:
Павелец 53.8°ш. 39.2°д. 209 м над ур. моря [Российская Федерация]

Дополнительная информация

В oтличие oт бoльшинства пoгoдных сайтoв мы публикуем пoдрoбную метеoинфoрмацию в детальнoм прoфессиoнальнoм фoрмате.

Характеристики температуры и влажнoсти вoздуха измеряются на высoте 2 м в тени вдали oт зданий и деревьев.
Скoрoсть ветра измеряется на высoте 10 м (на урoвне рoста челoвека скoрoсть ветра ниже в 1.5-2 раза). Если метеoстанция нахoдится в гoрoде или в лесу, тo скoрoсть ветра занижена на 2-4 м/с пo сравнению с oткрытым местoм. Скoрoсть ветра над акватoриями крупных рек и oзёр, а также на вершинах хoлмoв на 2-5 м/с выше, чем в oбычных услoвиях.
Атмoсфернoе давление в разных тoчках местнoсти мoжет значительнo oтличаться oт давления на метеoстанции, в зависимoсти oт услoвий рельефа (при пoдъёме на 10 м давление пoнижается примернo на 1 мм рт.ст.).